STARLINK-1759, 46340

Orbit data source: Space-Track

STARLINK-1759, 46340 is a payload satellite owned by SpaceX/Seattle (US) in LEO that was launched on Thu, 03 Sep 2020 UTC via an FALCON 9 launch vehicle from the Air Force Eastern Test Range (AFETR). Payloads include a variety of satellites, spacecraft, and rockets equipped with specific instruments for various scientific and technological missions. These include communications satellites like Starlink; space stations such as the ISS; scientific satellites like the Hubble; Earth observation satellites from companies like Planet Labs, Umbra, and HawkEye 360; GPS; miniature CubeSats for education and research; and military/defense satellites.

Loading next visibility...
STARLINK-1759 details
Identifier
46340, 2020-062R
Orbit
LEO
Last TLE update21 hours ago
Origin
Flag of USSpaceX/Seattle (US)
ManufacturerSpaceX/Seattle
MissionOperational Commercial Communications
Bus & MotorSTARLINK, Unknown motor
Mass260 kg wet, ~248 kg dry
Launch date (UTC)
2020-09-03 (4 years ago)
Launch vehicle
FALCON 9
Launch site
Air Force Eastern Test Range (AFETR)
Object type
Payload
Rocket body
Debris
Shape & HBRBox + 1 Pan, 8.86 m
Radar Cross Section13.562 m², Large (>1 m²)

Expand to show TLE details & history

TLE from 21 hours ago
0 STARLINK-1759
1 46340U 20062R   24340.57058479  .00034098  00000-0  22961-2 0  9991
2 46340  53.0546 278.0023 0001555  98.5668 261.5498 15.06413581235281
Epoch: 2024-12-05T13:41Z
Definitive object data (Epoch: 2024-12-05T13:41:38.525Z)
Latitude0.00002°
Longitude-2.25769°
Altitude548.208 km
Speed7.589 km/s
True Right ascension18h 32m 00s
True Declination0° 00' 00"
Sunlit
Object was in daylight at TLE epoch
Visualization TLE readout
Latitude-28.21946°
Longitude-29.76495°
Altitude556.226 km
Speed7.583 km/s
Apparent Right ascension18h 16m 23s
Apparent Declination-36° 40' 25"
Sunlit
Object is in daylight
Visualization observer readout
Local Sidereal Time08:16:20
Azimuth91.76° ESE
Elevation-66.357°
Doppler factor1
Orbital elements
Apogee altitude548.518 km
Perigee altitude546.364 km
Semi-major axis6,925.578 km
Eccentricity0.0001555
Inclination53.0546°
RAAN278.0023°
Arg. of periapsis98.5668°
True anomaly261.53217°
Mean anomaly261.5498°
Eccentric anomaly261.54099°
Mean motion3.76582 °/min
BSTAR0.0022961
Orbital period95.6 mins
Loading maneuver chart data...
Loading historical data...
Loading historical data...
Loading historical data...
Loading historical data...
Loading historical data...
Loading historical data...
Loading historical data...

STARLINK-1759 Visibility forecast

Observer location: undefined°, undefined

Span
Click to sort rows by Start time (UTC) header in descending order
Start Az.
Max El. time (UTC)
Max El. Az.
Max El.
End time (UTC)
End Az.
7 mins2024-12-06 21:41:02.114Z191.43° SSW2024-12-06 21:44:02.114Z144.237° SSE25.827°2024-12-06 21:48:02.114Z70.038° E
5 mins2024-12-06 23:22:02.114Z273.908° WNW2024-12-06 23:24:02.114Z333.122° NNW32.951°2024-12-06 23:27:02.114Z34.553° NE
6 mins2024-12-07 04:23:02.114Z331.65° NNW2024-12-07 04:26:02.114Z41.554° NE29.427°2024-12-07 04:29:02.114Z94.702° ESE
5 mins2024-12-07 06:03:02.114Z281.643° WNW2024-12-07 06:05:02.114Z234.093° WSW30.658°2024-12-07 06:08:02.114Z166.701° S
|